Aviation WX

[Source: ADDS]
METAR
KFKL 121656Z AUTO 31009KT 270V340 9SM -SN BKN021 OVC027 M06/M09 A2965 RMK AO2 SLP059 P0000 T10561094 FZRANO =
TAF
KFKL 121740Z 1218/1318 30010G20KT 5SM -SN OVC020 FM130000 29015G30KT 3SM -SN OVC008 =

Fuel Services

We have Avgas 100LL and Jet A premixed w/additive . Jet A can be delivered single point, or over the wing.  Quick Turn Around fueling is available, and we can do Hot Fueling of turbine helicopters by prior arrangement. 

Full service fueling is available during attended hours, or self serve after hours. 

If you would rather not pump the fuel yourself, after hours call out service is available at:

Aidan Stahlman 814-648-1626

 

Services

If you need fuel or services after hours, you may use our self-service fuel system, or we will arrange to have someone meet you.

Need a rental car? We can have one waiting for you when you arrive. If you need to stay
overnight, we have a heated hangar available, and there are several motels with pickup service within 4 miles of the airport. Find out who we can service you with by checking out our Links
.


  Fuel Availablility:
Attended hours or 
24 hours by request

Fuel Prices: Please check current  fuel prices at: http://www.airnav.com/airport/KAXQ/A



EPIC-Logo

Flight Training

Aircraft Rental

Hangars

Laser Grade FAA/FCC Computer Testing Center